This demonstration page uses our WeatherBlox Daily Observations layout. Learn more.

40.92945, -100.16068

Hourly Observations for August 13, 2017

Temp ( °F °C ) Dew Point ( °F °C ) Humidity (%) Winds ( mph kmh ) Pressure ( in mb ) Visibility ( mi km ) Precip ( " mm )
12:15 am 00:15 Mostly Cloudy 69 20.5 62 16.6 78 78 SSW 9 15 29.91 1013 10 16.09344 0 0
12:35 am 00:35 Partly Cloudy 67 19.6 62 16.9 85 85 SSE 5 7 29.94 1014 10 16.09344 0 0
12:55 am 00:55 Partly Cloudy 67 19.4 62 16.8 85 85 NE 5 7 29.94 1014 10 16.09344 0 0
1:15 am 01:15 Partly Cloudy 67 19.5 62 16.8 84 84 ESE 3 6 29.94 1014 10 16.09344 0 0
1:35 am 01:35 Mostly Cloudy 68 20 63 17.2 84 84 SE 6 9 29.91 1013 10 16.09344 0 0
1:55 am 01:55 Cloudy 68 20 63 17.3 85 85 SE 7 11 29.91 1013 10 16.09344 0 0
2:15 am 02:15 Cloudy 68 19.8 63 17.3 86 86 SE 6 9 29.94 1014 10 16.09344 0 0
2:35 am 02:35 Cloudy 67 19.6 64 17.5 88 88 SSE 8 13 29.88 1012 10 16.09344 0 0
2:55 am 02:55 Mostly Cloudy 66 19 63 17.3 90 90 SSE 6 9 29.91 1013 10 16.09344 0 0
3:15 am 03:15 Mostly Cloudy 67 19.2 64 17.5 90 90 SE 6 9 29.91 1013 10 16.09344 0 0
3:35 am 03:35 Cloudy 66 19.1 64 17.5 91 91 SSE 3 6 29.91 1013 10 16.09344 0 0
3:55 am 03:55 Cloudy 67 19.2 64 17.7 91 91 Calm 29.91 1013 10 16.09344 0 0
4:15 am 04:15 Cloudy 67 19.3 64 17.7 91 91 ESE 3 6 29.91 1013 10 16.09344 0 0
4:35 am 04:35 Mostly Cloudy 66 19.1 64 17.5 91 91 SE 7 11 29.91 1013 10 16.09344 0 0
4:55 am 04:55 Cloudy 67 19.3 64 17.7 91 91 SSE 7 11 29.85 1011 10 16.09344 0 0
5:15 am 05:15 Cloudy 67 19.3 64 17.7 91 91 S 8 13 29.85 1011 10 16.09344 0 0
5:35 am 05:35 Cloudy 67 19.4 64 17.7 90 90 S 8 13 29.85 1011 10 16.09344 0 0
5:55 am 05:55 Cloudy 67 19.5 64 17.8 90 90 S 10 17 29.85 1011 10 16.09344 0 0
6:15 am 06:15 Cloudy 67 19.5 64 18 91 91 SSW 8 13 29.85 1011 10 16.09344 0 0
6:35 am 06:35 Cloudy 67 19.3 64 18 92 92 SW 9 15 29.85 1011 7 11.265408 0 0
6:55 am 06:55 Cloudy 67 19.2 64 18 93 93 WSW 6 9 29.88 1012 7 11.265408 0 0
7:15 am 07:15 Cloudy with Mist and Fog 66 19.1 64 18 93 93 SW 8 13 29.88 1012 5 8.04672 0 0
7:35 am 07:35 Cloudy with Mist and Fog 66 19.1 64 18 93 93 SW 8 13 29.88 1012 4 6.437376 0 0
7:55 am 07:55 Cloudy with Mist and Fog 67 19.3 64 18 92 92 SW 6 9 29.85 1011 5 8.04672 0 0
8:15 am 08:15 Cloudy 67 19.7 64 17.8 89 89 SSW 9 15 29.85 1011 10 16.09344 0 0
8:35 am 08:35 Mostly Cloudy 68 20.1 64 17.9 87 87 S 9 15 29.85 1011 10 16.09344 0 0
8:55 am 08:55 Partly Cloudy 69 20.6 64 17.6 83 83 S 9 15 29.85 1011 10 16.09344 0 0
9:15 am 09:15 Sunny 70 21 64 17.5 81 81 S 7 11 29.85 1011 10 16.09344 0 0
9:35 am 09:35 Sunny 70 21.2 63 17.4 79 79 S 6 9 29.85 1011 10 16.09344 0 0
9:55 am 09:55 Partly Cloudy 71 21.5 64 17.6 79 79 S 6 9 29.85 1011 10 16.09344 0 0
10:15 am 10:15 Mostly Cloudy 72 22 64 17.9 78 78 S 10 17 29.85 1011 10 16.09344 0 0
10:35 am 10:35 Mostly Cloudy 72 22 64 17.9 78 78 S 10 17 29.85 1011 10 16.09344 0 0
10:55 am 10:55 Cloudy 72 22 64 18 78 78 S 10 17 29.85 1011 10 16.09344 0 0
11:15 am 11:15 Cloudy 71 21.5 64 17.6 79 79 S 7 11 29.85 1011 10 16.09344 0 0
11:35 am 11:35 Cloudy 72 22.1 64 17.7 76 76 S 7 11 29.85 1011 10 16.09344 0 0
11:55 am 11:55 Mostly Cloudy 73 22.7 64 17.6 73 73 S 9 15 29.85 1011 10 16.09344 0 0
12:15 pm 12:15 Mostly Cloudy 73 22.9 64 17.8 73 73 S 8 13 29.83 1010 10 16.09344 0 0
12:35 pm 12:35 Cloudy 74 23.5 65 18.3 73 73 SSE 10 17 29.8 1009 10 16.09344 0 0
12:55 pm 12:55 Mostly Cloudy 76 24.2 65 18.4 70 70 SSE 10 17 29.8 1009 10 16.09344 0 0
1:15 pm 13:15 Cloudy 76 24.6 65 18.4 68 68 S 6 9 29.8 1009 10 16.09344 0 0
1:35 pm 13:35 Cloudy 78 25.6 66 18.8 66 66 S 12 19 29.8 1009 10 16.09344 0 0
1:55 pm 13:55 Mostly Cloudy 79 25.9 66 18.7 65 65 S 9 15 29.8 1009 10 16.09344 0 0
2:15 pm 14:15 Cloudy 79 26.2 66 18.8 64 64 S 13 20 29.77 1008 10 16.09344 0 0
2:35 pm 14:35 Mostly Cloudy 81 27 67 19.2 62 62 S 9 15 29.77 1008 10 16.09344 0 0
2:55 pm 14:55 Mostly Cloudy 82 27.6 67 19.6 62 62 S 12 19 29.77 1008 10 16.09344 0 0
3:15 pm 15:15 Partly Cloudy 82 27.7 66 18.9 59 59 S 10 17 29.77 1008 10 16.09344 0 0
3:35 pm 15:35 Partly Cloudy 83 28.1 66 19.1 58 58 S 10 17 29.74 1007 10 16.09344 0 0
3:55 pm 15:55 Partly Cloudy 83 28.5 66 19.1 57 57 SSW 13 20 29.74 1007 10 16.09344 0 0
4:15 pm 16:15 Sunny 83 28.6 67 19.2 57 57 SSW 12 19 29.74 1007 10 16.09344 0 0
4:35 pm 16:35 Sunny 83 28.6 65 18.4 54 54 S 8 13 29.74 1007 10 16.09344 0 0
4:55 pm 16:55 Sunny 84 29 65 18.6 53 53 SSW 12 19 29.68 1005 10 16.09344 0 0
5:15 pm 17:15 Sunny 84 29 65 18.5 53 53 S 14 22 29.68 1005 10 16.09344 0 0
5:35 pm 17:35 Sunny 84 28.8 65 18.3 53 53 S 12 19 29.65 1004 10 16.09344 0 0
5:55 pm 17:55 Sunny 82 28 65 18.3 56 56 S 10 17 29.68 1005 10 16.09344 0 0
6:15 pm 18:15 Sunny 82 28 66 18.7 57 57 S 10 17 29.68 1005 10 16.09344 0 0
6:35 pm 18:35 Sunny 82 27.5 65 18.6 58 58 SSE 7 11 29.68 1005 10 16.09344 0 0
6:55 pm 18:55 Sunny 81 27.2 66 18.7 60 60 SSE 7 11 29.68 1005 10 16.09344 0 0
7:15 pm 19:15 Sunny 82 27.9 66 18.8 58 58 SE 6 9 29.68 1005 10 16.09344 0 0
7:35 pm 19:35 Sunny 81 27.4 66 19.1 61 61 ESE 8 13 29.68 1005 10 16.09344 0 0
7:55 pm 19:55 Sunny with Nearby Thunderstorms 80 26.8 66 19 62 62 SE 6 9 29.68 1005 10 16.09344 0 0
8:15 pm 20:15 Sunny with Nearby Thunderstorms 79 25.9 67 19.6 68 68 ESE 5 7 29.68 1005 10 16.09344 0 0
8:35 pm 20:35 Sunny with Nearby Thunderstorms 77 25 68 20 74 74 SE 6 9 29.71 1006 10 16.09344 0 0
8:55 pm 20:55 Clear with Nearby Thunderstorms 77 24.9 68 20.1 75 75 ENE 8 13 29.71 1006 10 16.09344 0 0
9:15 pm 21:15 Clear with Thunderstorms 75 23.7 69 20.4 82 82 ENE 9 15 29.74 1007 10 16.09344 0 0
9:35 pm 21:35 Partly Cloudy with Thunderstorms 75 23.7 66 18.9 75 75 NE 14 22 29.74 1007 10 16.09344 0 0
9:55 pm 21:55 Mostly Cloudy with Nearby Thunderstorms 74 23.6 67 19.3 77 77 E 14 22 29.71 1006 10 16.09344 0 0
10:15 pm 22:15 Partly Cloudy with Thunderstorms 75 24.1 67 19.7 77 77 E 15 24 29.74 1007 10 16.09344 0 0
10:35 pm 22:35 Mostly Cloudy with Thunderstorms 75 23.8 68 20 79 79 ESE 10 17 29.74 1007 7 11.265408 0.03 0.762
10:55 pm 22:55 Cloudy with Heavy Thunderstorms 74 23.2 68 20.2 83 83 SE 10 17 29.74 1007 4 6.437376 0.13 3.302
11:15 pm 23:15 Partly Cloudy with Light Thunderstorms 73 22.7 68 19.9 84 84 SSE 8 13 29.74 1007 10 16.09344 0.06 1.524
11:35 pm 23:35 Clear with Nearby Thunderstorms 73 22.6 67 19.2 81 81 SW 15 24 29.74 1007 10 16.09344 0.06 1.524
11:55 pm 23:55 Clear 72 22.4 67 19.5 84 84 S 8 13 29.71 1006 10 16.09344 0.06 1.524

Powered by AerisWeather